軌道要素
Epoch 2013 Apr. 18.0 TT = JDT 2456400.5
T 2013 Apr. 7.17157 TT MPC
q 2.1250881 (2000.0) P Q
n 0.11735863 Peri. 22.10803 -0.99446896 +0.06756820
a 4.1316739 Node 161.22345 -0.08035062 -0.98248000
e 0.4856593 Incl. 14.46687 +0.06764075 -0.17368817
P 8.40
From 105 observations 1996 Feb. 17-2013 June 11, mean residual 0".6.
|